Time,TemperatureF,DewpointF,PressureIn,WindDirection,WindDirectionDegrees,WindSpeedMPH,WindSpeedGustMPH,Humidity,HourlyPrecipIn,Conditions,Clouds,dailyrainin,SoftwareType,DateUTC
2013-03-29 00:03:00,35.0,33.0,30.19,WSW,246,0.0,3.0,92,0.00,,,-99.99,,2013-03-29 04:03:00,
2013-03-29 00:13:00,35.0,33.0,30.19,WSW,246,0.0,3.0,92,0.00,,,-99.99,,2013-03-29 04:13:00,
2013-03-29 00:22:00,35.0,33.0,30.19,NNE,25,0.0,0.0,93,0.00,,,-99.99,,2013-03-29 04:22:00,
2013-03-29 00:33:00,35.0,33.0,30.18,NNE,25,0.0,0.0,93,0.00,,,-99.99,,2013-03-29 04:33:00,
2013-03-29 00:43:00,35.0,33.0,30.18,NNE,25,0.0,0.0,93,0.00,,,-99.99,,2013-03-29 04:43:00,
2013-03-29 00:53:00,35.0,33.0,30.18,NNE,25,0.0,0.0,93,0.00,,,-99.99,,2013-03-29 04:53:00,
2013-03-29 01:03:00,35.0,33.0,30.19,NNE,25,0.0,0.0,93,0.00,,,-99.99,,2013-03-29 05:03:00,
2013-03-29 01:12:00,35.0,33.0,30.19,NNE,25,0.0,0.0,93,0.00,,,-99.99,,2013-03-29 05:12:00,
2013-03-29 01:23:00,35.0,33.0,30.19,SSW,197,0.0,4.0,93,0.00,,,-99.99,,2013-03-29 05:23:00,
2013-03-29 01:33:00,34.0,32.0,30.19,SW,219,0.0,0.0,93,0.00,,,-99.99,,2013-03-29 05:33:00,
2013-03-29 01:43:00,34.0,32.0,30.19,SW,219,0.0,0.0,93,0.00,,,-99.99,,2013-03-29 05:43:00,
2013-03-29 01:52:00,34.0,32.0,30.19,SW,219,0.0,0.0,93,0.00,,,-99.99,,2013-03-29 05:52:00,
2013-03-29 02:02:00,34.0,32.0,30.19,SW,219,0.0,0.0,94,0.00,,,-99.99,,2013-03-29 06:02:00,
2013-03-29 02:12:00,34.0,32.0,30.19,SW,219,0.0,0.0,94,0.00,,,-99.99,,2013-03-29 06:12:00,
2013-03-29 02:23:00,34.0,32.0,30.19,SW,219,0.0,0.0,94,0.00,,,-99.99,,2013-03-29 06:23:00,
2013-03-29 02:32:00,35.0,33.0,30.19,SW,219,0.0,0.0,94,0.00,,,-99.99,,2013-03-29 06:32:00,
2013-03-29 02:42:00,35.0,33.0,30.19,SW,219,0.0,0.0,94,0.00,,,-99.99,,2013-03-29 06:42:00,
2013-03-29 02:52:00,35.0,33.0,30.19,SW,231,0.0,2.0,94,0.00,,,-99.99,,2013-03-29 06:52:00,
2013-03-29 03:03:00,34.0,32.0,30.19,NNE,19,0.0,0.0,94,0.00,,,-99.99,,2013-03-29 07:03:00,
2013-03-29 03:12:00,34.0,32.0,30.19,NNE,19,0.0,0.0,94,0.00,,,-99.99,,2013-03-29 07:12:00,
2013-03-29 03:22:00,34.0,32.0,30.19,SW,227,0.0,5.0,94,0.00,,,-99.99,,2013-03-29 07:22:00,
2013-03-29 03:32:00,34.0,32.0,30.19,SW,227,0.0,7.0,94,0.00,,,-99.99,,2013-03-29 07:32:00,
2013-03-29 03:42:00,34.0,32.0,30.19,SW,227,0.0,7.0,94,0.00,,,-99.99,,2013-03-29 07:42:00,
2013-03-29 03:52:00,34.0,32.0,30.18,SW,224,1.0,7.0,94,0.00,,,-99.99,,2013-03-29 07:52:00,
2013-03-29 04:02:00,34.0,32.0,30.18,SW,234,0.0,3.0,94,0.00,,,-99.99,,2013-03-29 08:02:00,
2013-03-29 04:12:00,34.0,32.0,30.18,SW,234,0.0,3.0,94,0.00,,,-99.99,,2013-03-29 08:12:00,
2013-03-29 04:22:00,34.0,32.0,30.18,SW,229,1.0,6.0,94,0.00,,,-99.99,,2013-03-29 08:22:00,
2013-03-29 04:32:00,34.0,32.0,30.18,SW,226,0.0,0.0,94,0.00,,,-99.99,,2013-03-29 08:32:00,
2013-03-29 04:42:00,34.0,32.0,30.18,SW,226,0.0,0.0,94,0.00,,,-99.99,,2013-03-29 08:42:00,
2013-03-29 04:52:00,34.0,32.0,30.18,SW,226,0.0,0.0,94,0.00,,,-99.99,,2013-03-29 08:52:00,
2013-03-29 05:02:00,34.0,32.0,30.18,SW,226,0.0,0.0,94,0.00,,,-99.99,,2013-03-29 09:02:00,
2013-03-29 05:13:00,34.0,32.0,30.18,SW,226,0.0,0.0,94,0.00,,,-99.99,,2013-03-29 09:13:00,
2013-03-29 05:22:00,34.0,32.0,30.18,SW,226,0.0,0.0,94,0.00,,,-99.99,,2013-03-29 09:22:00,
2013-03-29 05:33:00,34.0,32.0,30.18,SW,220,0.0,5.0,94,0.00,,,-99.99,,2013-03-29 09:33:00,
2013-03-29 05:43:00,34.0,32.0,30.18,SW,220,0.0,5.0,94,0.00,,,-99.99,,2013-03-29 09:43:00,
2013-03-29 05:52:00,34.0,32.0,30.18,SW,229,0.0,0.0,94,0.00,,,-99.99,,2013-03-29 09:52:00,
2013-03-29 06:03:00,34.0,32.0,30.18,SW,229,0.0,0.0,94,0.00,,,-99.99,,2013-03-29 10:03:00,
2013-03-29 06:12:00,34.0,32.0,30.18,SW,229,0.0,0.0,94,0.00,,,-99.99,,2013-03-29 10:12:00,
2013-03-29 06:23:00,34.0,32.0,30.18,SW,229,0.0,0.0,94,0.00,,,-99.99,,2013-03-29 10:23:00,
2013-03-29 06:33:00,34.0,32.0,30.18,SW,229,0.0,0.0,94,0.00,,,-99.99,,2013-03-29 10:33:00,
2013-03-29 06:42:00,34.0,32.0,30.18,SW,229,0.0,0.0,94,0.00,,,-99.99,,2013-03-29 10:42:00,
2013-03-29 06:52:00,34.0,32.0,30.18,SW,229,0.0,0.0,94,0.00,,,-99.99,,2013-03-29 10:52:00,
2013-03-29 07:04:00,34.0,32.0,30.18,SW,229,0.0,0.0,94,0.00,,,-99.99,,2013-03-29 11:04:00,
2013-03-29 07:12:00,34.0,32.0,30.18,SW,229,0.0,0.0,94,0.00,,,-99.99,,2013-03-29 11:12:00,
2013-03-29 07:23:00,34.0,32.0,30.18,SW,229,0.0,0.0,94,0.00,,,-99.99,,2013-03-29 11:23:00,
2013-03-29 07:33:00,34.0,32.0,30.18,SW,229,0.0,0.0,94,0.00,,,-99.99,,2013-03-29 11:33:00,
2013-03-29 07:42:00,34.0,32.0,30.18,SW,229,0.0,0.0,94,0.00,,,-99.99,,2013-03-29 11:42:00,
2013-03-29 07:53:00,33.0,31.0,30.18,SW,229,0.0,0.0,94,0.00,,,-99.99,,2013-03-29 11:53:00,
2013-03-29 08:03:00,34.0,33.0,30.19,SW,229,0.0,0.0,95,0.00,,,-99.99,,2013-03-29 12:03:00,
2013-03-29 08:12:00,34.0,33.0,30.19,SW,229,0.0,0.0,95,0.00,,,-99.99,,2013-03-29 12:12:00,
2013-03-29 08:22:00,34.0,32.0,30.19,SW,229,0.0,0.0,94,0.00,,,-99.99,,2013-03-29 12:22:00,
2013-03-29 08:32:00,34.0,32.0,30.19,SW,229,0.0,0.0,94,0.00,,,-99.99,,2013-03-29 12:32:00,
2013-03-29 08:42:00,34.0,32.0,30.19,SW,229,0.0,0.0,94,0.00,,,-99.99,,2013-03-29 12:42:00,
2013-03-29 08:52:00,34.0,32.0,30.20,SW,229,0.0,0.0,94,0.00,,,-99.99,,2013-03-29 12:52:00,
2013-03-29 09:03:00,35.0,33.0,30.20,SW,229,0.0,0.0,93,0.00,,,-99.99,,2013-03-29 13:03:00,
2013-03-29 09:12:00,35.0,33.0,30.20,SW,229,0.0,0.0,93,0.00,,,-99.99,,2013-03-29 13:12:00,
2013-03-29 09:22:00,35.0,33.0,30.20,SW,229,0.0,0.0,93,0.00,,,-99.99,,2013-03-29 13:22:00,
2013-03-29 09:32:00,36.0,34.0,30.20,SW,229,0.0,0.0,92,0.00,,,-99.99,,2013-03-29 13:32:00,
2013-03-29 09:42:00,36.0,34.0,30.20,SW,229,0.0,0.0,92,0.00,,,-99.99,,2013-03-29 13:42:00,
2013-03-29 09:53:00,36.0,34.0,30.20,South,188,0.0,4.0,91,0.00,,,-99.99,,2013-03-29 13:53:00,
2013-03-29 10:03:00,37.0,35.0,30.20,SE,144,0.0,0.0,91,0.00,,,-99.99,,2013-03-29 14:03:00,
2013-03-29 10:12:00,37.0,35.0,30.20,SE,144,0.0,0.0,91,0.00,,,-99.99,,2013-03-29 14:12:00,
2013-03-29 10:22:00,37.0,34.0,30.20,South,174,0.0,6.0,90,0.00,,,-99.99,,2013-03-29 14:22:00,
2013-03-29 10:32:00,38.0,35.0,30.20,South,170,0.0,0.0,89,0.00,,,-99.99,,2013-03-29 14:32:00,
2013-03-29 10:42:00,38.0,35.0,30.20,South,170,0.0,0.0,89,0.00,,,-99.99,,2013-03-29 14:42:00,
2013-03-29 10:53:00,40.0,36.0,30.19,South,180,1.0,7.0,87,0.00,,,-99.99,,2013-03-29 14:53:00,
2013-03-29 11:02:00,41.0,37.0,30.19,SW,219,0.0,9.0,84,0.00,,,-99.99,,2013-03-29 15:02:00,
2013-03-29 11:12:00,41.0,37.0,30.19,SW,219,0.0,9.0,84,0.00,,,-99.99,,2013-03-29 15:12:00,
2013-03-29 11:22:00,42.0,37.0,30.19,South,186,0.0,0.0,83,0.00,,,-99.99,,2013-03-29 15:22:00,
2013-03-29 11:33:00,42.0,37.0,30.20,SSW,207,0.0,1.0,82,0.00,,,-99.99,,2013-03-29 15:33:00,
2013-03-29 11:43:00,42.0,37.0,30.20,SSW,207,0.0,1.0,82,0.00,,,-99.99,,2013-03-29 15:43:00,
2013-03-29 11:53:00,43.0,37.0,30.19,SW,224,1.0,8.0,80,0.00,,,-99.99,,2013-03-29 15:53:00,
2013-03-29 12:03:00,44.0,38.0,30.19,SW,229,1.0,9.0,79,0.00,,,-99.99,,2013-03-29 16:03:00,
2013-03-29 12:13:00,44.0,38.0,30.19,SW,229,1.0,9.0,79,0.00,,,-99.99,,2013-03-29 16:13:00,
2013-03-29 12:23:00,45.0,38.0,30.19,South,183,0.0,0.0,77,0.00,,,-99.99,,2013-03-29 16:23:00,
2013-03-29 12:33:00,45.0,38.0,30.19,SSW,199,0.0,6.0,77,0.00,,,-99.99,,2013-03-29 16:33:00,
2013-03-29 12:42:00,45.0,38.0,30.19,SSW,199,0.0,6.0,77,0.00,,,-99.99,,2013-03-29 16:42:00,
2013-03-29 12:53:00,44.0,37.0,30.18,South,178,0.0,5.0,76,0.00,,,-99.99,,2013-03-29 16:53:00,
2013-03-29 13:03:00,44.0,37.0,30.18,SSW,203,1.0,8.0,76,0.00,,,-99.99,,2013-03-29 17:03:00,
2013-03-29 13:12:00,44.0,37.0,30.18,SSW,203,1.0,8.0,76,0.00,,,-99.99,,2013-03-29 17:12:00,
2013-03-29 13:23:00,44.0,36.0,30.18,SW,214,2.0,9.0,74,0.00,,,-99.99,,2013-03-29 17:23:00,
2013-03-29 13:33:00,44.0,36.0,30.18,SW,230,1.0,11.0,73,0.00,,,-99.99,,2013-03-29 17:33:00,
2013-03-29 13:43:00,44.0,36.0,30.18,SW,230,1.0,11.0,73,0.00,,,-99.99,,2013-03-29 17:43:00,
2013-03-29 13:53:00,45.0,37.0,30.17,SE,138,2.0,10.0,72,0.00,,,-99.99,,2013-03-29 17:53:00,
2013-03-29 14:02:00,48.0,38.0,30.17,ESE,110,4.0,11.0,69,0.00,,,-99.99,,2013-03-29 18:02:00,
2013-03-29 14:12:00,48.0,38.0,30.17,ESE,110,4.0,11.0,69,0.00,,,-99.99,,2013-03-29 18:12:00,
2013-03-29 14:23:00,48.0,38.0,30.16,SSW,198,2.0,10.0,67,0.00,,,-99.99,,2013-03-29 18:23:00,
2013-03-29 14:32:00,49.0,38.0,30.16,South,177,3.0,11.0,65,0.00,,,-99.99,,2013-03-29 18:32:00,
2013-03-29 14:42:00,49.0,38.0,30.16,South,177,3.0,11.0,65,0.00,,,-99.99,,2013-03-29 18:42:00,
2013-03-29 14:52:00,48.0,37.0,30.16,SSW,198,2.0,11.0,66,0.00,,,-99.99,,2013-03-29 18:52:00,
2013-03-29 15:03:00,47.0,36.0,30.15,SW,227,1.0,10.0,66,0.00,,,-99.99,,2013-03-29 19:03:00,
2013-03-29 15:12:00,46.0,36.0,30.14,SSW,203,4.0,15.0,68,0.00,,,-99.99,,2013-03-29 19:12:00,
2013-03-29 15:23:00,46.0,36.0,30.14,SSW,203,4.0,15.0,68,0.00,,,-99.99,,2013-03-29 19:23:00,
2013-03-29 15:32:00,47.0,37.0,30.14,South,188,3.0,9.0,67,0.00,,,-99.99,,2013-03-29 19:32:00,
2013-03-29 15:42:00,47.0,37.0,30.14,South,188,3.0,9.0,67,0.00,,,-99.99,,2013-03-29 19:42:00,
2013-03-29 15:53:00,46.0,36.0,30.14,SSW,210,2.0,10.0,67,0.00,,,-99.99,,2013-03-29 19:53:00,
2013-03-29 16:02:00,47.0,37.0,30.14,WSW,243,1.0,10.0,67,0.00,,,-99.99,,2013-03-29 20:02:00,
2013-03-29 16:12:00,47.0,37.0,30.14,WSW,243,1.0,10.0,67,0.00,,,-99.99,,2013-03-29 20:12:00,
2013-03-29 16:22:00,46.0,36.0,30.14,South,174,0.0,6.0,67,0.00,,,-99.99,,2013-03-29 20:22:00,
2013-03-29 16:33:00,46.0,36.0,30.14,North,1,0.0,1.0,67,0.00,,,-99.99,,2013-03-29 20:33:00,
2013-03-29 16:42:00,46.0,36.0,30.14,North,1,0.0,1.0,67,0.00,,,-99.99,,2013-03-29 20:42:00,
2013-03-29 16:52:00,46.0,36.0,30.14,North,1,0.0,1.0,67,0.00,,,-99.99,,2013-03-29 20:52:00,
2013-03-29 17:02:00,47.0,36.0,30.12,SE,137,0.0,5.0,66,0.00,,,-99.99,,2013-03-29 21:02:00,
2013-03-29 17:12:00,47.0,36.0,30.12,SE,137,0.0,5.0,66,0.00,,,-99.99,,2013-03-29 21:12:00,
2013-03-29 17:22:00,48.0,36.0,30.12,ESE,121,2.0,9.0,64,0.00,,,-99.99,,2013-03-29 21:22:00,
2013-03-29 17:33:00,48.0,36.0,30.12,SSW,196,2.0,11.0,64,0.00,,,-99.99,,2013-03-29 21:33:00,
2013-03-29 17:42:00,48.0,36.0,30.12,SSW,196,2.0,11.0,64,0.00,,,-99.99,,2013-03-29 21:42:00,
2013-03-29 17:53:00,47.0,35.0,30.12,SSW,195,3.0,9.0,64,0.00,,,-99.99,,2013-03-29 21:53:00,
2013-03-29 18:03:00,47.0,35.0,30.12,South,184,4.0,11.0,64,0.00,,,-99.99,,2013-03-29 22:03:00,
2013-03-29 18:13:00,47.0,35.0,30.12,South,184,4.0,11.0,64,0.00,,,-99.99,,2013-03-29 22:13:00,
2013-03-29 18:23:00,46.0,35.0,30.12,SW,223,2.0,10.0,64,0.00,,,-99.99,,2013-03-29 22:23:00,
2013-03-29 18:33:00,45.0,34.0,30.12,SW,227,1.0,8.0,65,0.00,,,-99.99,,2013-03-29 22:33:00,
2013-03-29 18:42:00,45.0,34.0,30.12,SW,227,1.0,8.0,65,0.00,,,-99.99,,2013-03-29 22:42:00,
2013-03-29 18:54:00,46.0,35.0,30.12,SW,226,0.0,5.0,65,0.00,,,-99.99,,2013-03-29 22:54:00,
2013-03-29 19:03:00,45.0,34.0,30.12,WSW,242,0.0,4.0,65,0.00,,,-99.99,,2013-03-29 23:03:00,
2013-03-29 19:12:00,45.0,34.0,30.12,WSW,242,0.0,4.0,65,0.00,,,-99.99,,2013-03-29 23:12:00,
2013-03-29 19:22:00,45.0,34.0,30.14,East,87,0.0,6.0,65,0.00,,,-99.99,,2013-03-29 23:22:00,
2013-03-29 19:32:00,44.0,33.0,30.14,WSW,254,0.0,0.0,66,0.00,,,-99.99,,2013-03-29 23:32:00,
2013-03-29 19:42:00,44.0,33.0,30.14,WSW,254,0.0,0.0,66,0.00,,,-99.99,,2013-03-29 23:42:00,
2013-03-29 19:53:00,44.0,34.0,30.14,WSW,254,0.0,0.0,67,0.00,,,-99.99,,2013-03-29 23:53:00,
2013-03-29 20:03:00,43.0,33.0,30.14,ESE,111,3.0,11.0,67,0.00,,,-99.99,,2013-03-30 00:03:00,
2013-03-29 20:12:00,43.0,33.0,30.14,ESE,111,3.0,11.0,67,0.00,,,-99.99,,2013-03-30 00:12:00,
2013-03-29 20:22:00,44.0,34.0,30.14,NNE,28,0.0,0.0,67,0.00,,,-99.99,,2013-03-30 00:22:00,
2013-03-29 20:32:00,43.0,33.0,30.14,NNE,28,0.0,0.0,68,0.00,,,-99.99,,2013-03-30 00:32:00,
2013-03-29 20:42:00,43.0,33.0,30.14,NNE,28,0.0,0.0,68,0.00,,,-99.99,,2013-03-30 00:42:00,
2013-03-29 20:52:00,43.0,33.0,30.14,NNE,28,0.0,0.0,68,0.00,,,-99.99,,2013-03-30 00:52:00,
2013-03-29 21:03:00,42.0,33.0,30.14,NNE,28,0.0,0.0,70,0.00,,,-99.99,,2013-03-30 01:03:00,
2013-03-29 21:12:00,42.0,33.0,30.14,NNE,28,0.0,0.0,70,0.00,,,-99.99,,2013-03-30 01:12:00,
2013-03-29 21:22:00,42.0,33.0,30.14,NNE,28,0.0,0.0,70,0.00,,,-99.99,,2013-03-30 01:22:00,
2013-03-29 21:33:00,41.0,32.0,30.15,NNE,28,0.0,0.0,71,0.00,,,-99.99,,2013-03-30 01:33:00,
2013-03-29 21:43:00,41.0,32.0,30.15,NNE,28,0.0,0.0,71,0.00,,,-99.99,,2013-03-30 01:43:00,
2013-03-29 21:53:00,41.0,32.0,30.15,NNE,28,0.0,0.0,71,0.00,,,-99.99,,2013-03-30 01:53:00,
2013-03-29 22:03:00,41.0,33.0,30.15,NNE,28,0.0,0.0,72,0.00,,,-99.99,,2013-03-30 02:03:00,
2013-03-29 22:12:00,41.0,33.0,30.15,NNE,28,0.0,0.0,72,0.00,,,-99.99,,2013-03-30 02:12:00,
2013-03-29 22:22:00,40.0,32.0,30.16,NNE,28,0.0,0.0,74,0.00,,,-99.99,,2013-03-30 02:22:00,
2013-03-29 22:33:00,39.0,32.0,30.16,NNE,28,0.0,0.0,76,0.00,,,-99.99,,2013-03-30 02:33:00,
2013-03-29 22:42:00,39.0,32.0,30.16,NNE,28,0.0,0.0,76,0.00,,,-99.99,,2013-03-30 02:42:00,
2013-03-29 22:52:00,38.0,32.0,30.16,NNE,28,0.0,0.0,78,0.00,,,-99.99,,2013-03-30 02:52:00,
2013-03-29 23:03:00,38.0,32.0,30.16,NNE,28,0.0,0.0,79,0.00,,,-99.99,,2013-03-30 03:03:00,
2013-03-29 23:12:00,38.0,32.0,30.16,NNE,28,0.0,0.0,79,0.00,,,-99.99,,2013-03-30 03:12:00,
2013-03-29 23:22:00,38.0,32.0,30.16,NNE,28,0.0,0.0,79,0.00,,,-99.99,,2013-03-30 03:22:00,
2013-03-29 23:33:00,37.0,31.0,30.16,NNE,28,0.0,0.0,80,0.00,,,-99.99,,2013-03-30 03:33:00,
2013-03-29 23:43:00,37.0,31.0,30.16,NNE,28,0.0,0.0,80,0.00,,,-99.99,,2013-03-30 03:43:00,
2013-03-29 23:53:00,37.0,32.0,30.16,NNE,28,0.0,0.0,81,0.00,,,-99.99,,2013-03-30 03:53:00,